Location: Azat
(46.0765°N, 1.7600°E)
Time: 15:10:46
(UTC+00:00)

Abrixas rocket - Pass Details

Date: 09 April 2020
Orbit: 344 x 351 km, 48.4° (Epoch: 04 June)

Event Time Altitude Azimuth Distance (km) Brightness Sun altitude
Rises 19:54:42 0° 288° (WNW) 2,166 7.7 -14.1°
Reaches altitude 10° 19:56:44 10° 285° (WNW) 1,324 6.1 -14.5°
Maximum altitude 19:59:40 67° 203° (SSW) 388 2.0 -14.9°
Enters shadow 20:00:33 40° 134° (SE) 541 2.3 -15.0°
